sat.trackr.live / text

‹ back to catalog

STARLINK-6329

NORAD 56525 · 2023-065Y

PAYLOAD ACTIVE UNKNOWN

§ Identity

Operator
Country
US
Launch date
2023-05-14
Launch site
AFETR
Launch vehicle
Mass (kg)
RCS (m²)

Purposes: comms

External: N2YO · Heavens-Above · Gunter

§ Orbital elements

Epoch: 2026-05-25T04:00:03.998880Z

Period
94.68 min
Inclination
43.0005°
Eccentricity
0.0001292
Mean motion
15.20906315 rev/d
Perigee alt
502.2 km
Apogee alt
504.0 km
Semi-major
6,881.2 km
B*
8.3792e-4
RAAN
151.0177°
Arg perigee
252.3708°
Mean anomaly
92.5033°
Rev number
578

§ Raw data

STARLINK-63291 56525U 23065Y   26145.16671295  .00018690  00000+0  83792-3 0  99992 56525  43.0005 151.0177 0001292 252.3708  92.5033 15.20906315  5784

JSON: /api/v1/satellites/56525 · /tle

For live sub-satellite position, see the globe view (requires WebGL).

§ Visibility from observer

Set your observer location to see the next 7 days of passes ≥ 10°. The values pass through the URL so the page stays shareable.

No JS? Fill the form by hand. The geolocation button needs JavaScript.